Wind_Speed
39 43 48 43 31 32 36 39 34 37 37 38 40 38 36 31 28 22 14 11 11 9 7 9 11 11 9 11 16 22 26 27 26 27 30 34 36 38 38 38 39 39 40
38 42 46 38 31 33 36 38 38 35 36 37 38 38 37 35 32 28 23 17 12 10 8 7 8 11 10 9 11 15 21 24 26 27 29 30 33 33 33 37 41 38 37
37 40 42 38 33 34 35 37 39 35 34 36 36 36 35 34 33 32 28 23 18 14 10 7 7 7 8 10 12 13 16 21 23 26 29 30 28 29 23 34 35 35 32
35 37 39 37 36 34 34 35 37 37 35 35 34 34 34 34 33 30 29 26 22 17 14 11 7 6 7 9 11 13 14 15 17 21 25 28 32 33 32 33 33 37 34
33 35 37 38 36 36 33 33 35 36 37 37 36 35 33 33 33 33 30 27 23 19 15 12 8 5 3 3 7 9 13 15 16 15 20 25 29 31 34 36 42 33 42
31 33 35 37 37 36 34 32 32 33 34 35 36 36 34 32 32 33 33 30 25 20 16 12 7 4 1 1 3 4 6 8 14 16 16 20 25 28 32 40 37 38 33
31 32 34 35 36 36 35 32 30 31 31 32 33 35 36 35 32 32 33 32 26 22 17 13 9 5 1 2 1 3 5 8 9 14 17 16 19 25 29 32 36 40 31
30 30 32 34 35 35 36 34 29 28 30 30 31 32 34 36 36 33 33 32 27 23 21 16 13 7 5 3 3 4 5 6 9 14 19 21 22 19 23 28 25 28 27
28 29 30 31 33 33 34 34 31 28 27 28 30 32 33 34 35 36 32 32 29 25 22 19 17 11 6 5 3 2 6 9 11 14 19 23 25 24 26 25 23 28 20
27 28 30 30 30 31 32 32 31 28 26 25 25 28 30 32 34 34 34 30 30 27 23 21 17 14 12 9 5 2 3 6 7 8 14 20 21 23 25 26 30 29 24
25 26 28 29 29 29 29 30 31 31 29 27 28 27 26 28 30 32 33 32 28 27 25 23 20 16 12 12 10 6 1 3 2 4 6 9 11 11 14 19 24 27 27
24 25 27 28 28 28 28 27 28 30 30 30 28 27 27 25 27 28 30 31 29 27 25 23 21 18 17 15 13 11 9 8 7 8 9 7 5 3 3 4 9 14 19
25 24 25 27 28 27 27 26 25 26 28 29 28 27 25 25 25 25 26 27 28 26 24 24 22 20 19 18 16 15 14 12 11 12 11 11 10 8 7 6 10 12 11
25 25 26 27 28 28 28 27 25 24 25 27 28 28 26 24 24 25 24 24 23 24 24 22 21 18 17 16 14 12 11 9 9 8 8 9 10 11 10 10 10 11 11
26 27 28 29 29 28 28 28 27 25 23 24 26 26 25 24 21 20 22 22 21 20 20 21 18 18 17 14 13 11 10 9 8 8 9 9 9 9 9 9 9 9 9
27 28 28 28 29 29 29 28 27 25 23 23 24 25 24 22 22 21 19 18 19 18 18 18 18 17 15 14 13 10 9 7 7 8 7 7 6 6 5 5 5 4 4
28 28 29 29 29 30 30 29 26 24 23 24 24 23 23 22 21 21 20 16 14 15 15 17 16 16 14 13 11 10 9 6 4 4 3 3 2 2 3 3 3 3 3
28 29 28 28 28 28 29 29 26 26 28 27 25 24 22 22 21 21 19 17 14 13 13 12 13 14 13 12 10 9 7 5 4 1 0 1 1 1 1 2 1 1 2
28 29 28 27 27 28 29 29 29 29 29 29 28 25 21 18 19 20 20 19 17 15 14 15 14 11 10 11 10 8 8 6 4 3 2 2 3 4 4 5 4 4 4
28 29 29 27 27 29 29 29 29 29 29 29 29 28 26 24 23 23 21 20 19 17 16 15 14 15 14 10 8 8 7 7 7 6 7 8 8 7 6 7 8 7 6
28 30 29 28 28 29 28 28 28 29 29 29 28 28 27 26 26 25 23 22 22 22 20 19 17 15 14 15 14 12 10 8 8 9 10 11 13 12 12 11 11 10 10
29 30 29 28 28 28 28 28 29 29 29 29 29 29 29 29 28 26 24 23 23 24 24 23 21 20 17 16 16 15 15 14 13 11 11 12 16 17 18 16 15 14 12
31 30 30 28 27 27 27 29 29 30 31 31 31 31 31 30 29 29 27 24 24 24 25 25 25 24 22 20 19 18 17 17 17 17 17 18 18 20 23 22 20 18 16
30 29 29 28 28 29 29 30 31 31 31 32 33 33 32 32 31 31 29 27 24 22 22 24 26 27 26 25 23 21 20 19 18 18 19 21 21 22 27 28 26 23 20
29 28 27 27 29 29 31 31 32 32 32 33 34 33 33 32 32 32 31 29 27 23 21 21 23 26 28 27 26 24 22 20 18 18 19 19 19 16 24 31 26 25 22
29 28 28 29 30 31 32 33 34 33 34 34 34 34 33 33 33 33 32 32 30 27 28 27 25 22 22 24 25 25 22 21 18 18 18 16 13 9 15 24 22 22 23
Wind_Direction
352 353 354 357 4 4 2 3 2 4 6 8 13 16 15 12 12 16 17 10 4 357 324 273 269 269 269 248 233 226 225 229 232 235 233 229 224 223 225 227 227 232 238
355 357 358 3 7 4 4 6 6 4 8 11 13 16 19 19 18 17 15 13 7 354 338 332 291 278 273 274 253 235 227 227 229 232 234 234 227 220 223 221 220 224 227
358 359 3 6 5 4 5 8 9 8 9 12 14 15 16 18 21 18 14 10 2 359 352 334 307 293 278 261 260 252 240 231 229 228 230 229 225 203 221 221 212 212 219
360 0 5 6 8 3 4 8 10 13 13 11 13 15 15 17 18 16 13 9 6 358 350 343 326 304 275 253 247 241 243 242 237 231 226 228 225 220 227 221 208 217 187
1 2 5 8 8 7 4 8 9 14 16 14 13 14 16 15 14 14 13 9 6 2 354 353 348 332 311 245 239 231 229 228 228 231 230 229 227 225 223 219 231 228 244
1 1 4 9 12 9 8 8 9 13 14 16 16 15 15 14 15 13 15 14 9 9 6 1 354 353 312 279 253 246 220 216 216 219 224 228 230 226 223 223 218 235 243
1 2 4 5 10 13 12 10 10 10 11 13 15 18 20 19 15 14 16 18 18 17 20 15 5 8 6 133 320 273 252 224 212 211 213 216 231 228 225 231 236 237 247
1 4 5 5 7 11 14 16 11 8 9 12 15 18 17 19 19 17 17 21 25 25 20 20 18 13 25 340 305 279 279 260 236 221 219 219 225 224 218 226 232 237 242
1 4 6 7 6 9 12 14 16 10 6 7 11 16 18 17 19 19 20 20 22 26 29 27 28 35 28 16 14 269 256 267 261 247 229 224 229 233 230 230 236 235 251
2 6 6 6 5 5 11 13 13 13 12 7 4 6 12 16 16 19 19 21 21 21 27 31 33 37 41 38 31 357 289 293 273 258 229 218 225 236 242 246 247 251 252
359 2 3 4 4 3 5 9 12 13 13 13 14 11 6 10 14 15 20 20 21 23 27 32 35 38 43 47 43 49 43 49 12 275 243 223 231 242 243 247 246 243 240
357 358 360 0 360 359 358 2 7 8 9 9 10 13 12 8 9 12 16 21 21 22 26 33 37 44 48 52 58 59 62 76 95 82 78 95 120 153 189 218 232 227 221
352 355 358 357 356 354 353 355 359 3 4 7 9 8 11 13 9 10 13 16 22 23 24 29 35 42 47 49 53 60 68 76 83 86 94 99 102 104 106 110 100 117 146
352 352 353 353 352 352 350 349 351 357 0 1 3 7 8 10 12 11 13 13 15 23 25 25 30 36 45 47 47 53 59 62 69 75 80 86 95 107 114 117 117 122 131
351 351 349 348 348 349 349 347 347 350 352 356 357 0 4 7 8 10 8 11 13 15 23 27 26 31 36 42 47 46 44 47 56 68 80 88 91 94 99 105 115 126 135
348 348 347 345 345 345 345 347 348 347 347 346 349 352 354 358 1 0 7 11 13 17 19 20 25 30 27 30 35 42 50 57 85 93 97 108 111 113 118 128 134 144 155
346 346 344 343 342 341 341 344 347 349 346 340 338 341 343 347 350 356 356 358 8 13 12 15 19 18 22 25 22 25 34 49 79 87 87 99 111 116 128 136 147 158 181
341 342 341 338 338 337 337 340 344 345 342 340 336 332 331 335 337 339 345 348 345 342 352 360 1 2 4 9 8 14 13 17 27 15 265 238 244 238 221 217 221 261 265
335 337 339 336 334 336 337 338 338 338 339 339 339 337 333 317 326 330 328 329 334 334 335 334 333 337 341 344 347 351 347 345 326 309 295 274 262 251 240 238 256 267 257
334 335 336 334 333 335 335 336 336 336 338 338 337 336 334 328 316 311 313 310 310 315 318 323 328 328 325 319 321 321 320 319 318 302 281 268 264 256 246 246 256 258 249
335 334 332 331 332 334 335 336 336 337 337 337 337 337 336 334 331 325 317 306 301 300 301 306 310 315 316 315 310 309 303 294 289 289 286 273 264 254 251 247 246 248 249
333 332 331 331 332 335 336 335 335 337 337 336 336 336 335 334 331 329 323 313 300 293 292 292 294 295 297 301 302 298 296 297 297 297 291 276 263 252 243 241 242 238 234
331 331 331 332 333 334 335 335 334 335 335 335 336 335 334 333 332 330 327 319 309 298 287 284 283 283 285 285 288 291 289 288 287 293 300 299 278 250 239 234 232 232 227
330 330 331 332 332 333 335 334 333 334 334 336 337 335 333 335 333 331 328 325 322 312 299 287 282 279 277 276 277 280 286 286 283 286 298 305 293 265 236 226 227 226 227
331 330 331 331 331 333 333 331 331 333 335 335 334 334 333 333 332 331 327 323 318 312 309 303 289 277 274 268 269 271 277 283 285 282 290 302 312 280 231 218 221 223 222
332 331 333 332 332 331 330 330 331 332 333 332 332 333 333 333 331 328 323 318 311 304 304 299 288 286 282 275 264 267 272 280 283 279 289 288 299 300 224 208 213 221 219
Height
5764 5755 5744 5732 5723 5716 5707 5697 5687 5679 5670 5661 5652 5642 5633 5625 5619 5615 5612 5610 5609 5608 5607 5608 5609 5609 5610 5611 5612 5614 5617 5622 5628 5633 5637 5640 5646 5651 5657 5664 5670 5676 5682
5762 5754 5743 5732 5723 5716 5707 5697 5688 5679 5671 5662 5654 5645 5638 5630 5622 5617 5613 5610 5608 5606 5605 5604 5603 5603 5605 5606 5608 5610 5614 5617 5621 5625 5629 5634 5638 5643 5648 5652 5659 5665 5672
5761 5753 5744 5733 5724 5715 5707 5698 5689 5680 5672 5664 5656 5648 5641 5635 5627 5621 5615 5611 5608 5605 5603 5601 5600 5600 5600 5601 5603 5606 5610 5613 5617 5620 5624 5628 5633 5638 5641 5644 5651 5657 5661
5760 5753 5744 5734 5725 5717 5709 5700 5692 5683 5674 5667 5659 5652 5644 5637 5630 5624 5619 5613 5608 5604 5601 5599 5598 5598 5597 5598 5599 5602 5604 5607 5611 5614 5618 5622 5626 5631 5635 5641 5645 5648 5650
5759 5752 5743 5734 5725 5717 5709 5702 5694 5686 5678 5670 5662 5654 5647 5640 5633 5627 5621 5615 5610 5605 5601 5599 5597 5596 5596 5596 5597 5600 5601 5603 5606 5609 5612 5616 5620 5625 5629 5633 5634 5638 5637
5758 5751 5743 5734 5726 5718 5711 5703 5696 5688 5681 5673 5666 5658 5650 5643 5637 5630 5623 5616 5611 5606 5602 5599 5597 5596 5596 5596 5596 5597 5599 5600 5603 5606 5608 5611 5614 5618 5622 5625 5629 5632 5634
5757 5750 5743 5735 5727 5719 5711 5704 5697 5691 5684 5677 5669 5662 5655 5647 5640 5633 5626 5619 5613 5608 5605 5601 5598 5596 5595 5595 5595 5595 5596 5598 5600 5603 5605 5608 5609 5613 5617 5620 5624 5628 5630
5756 5749 5742 5735 5728 5720 5712 5705 5698 5692 5686 5679 5672 5665 5658 5651 5644 5636 5629 5623 5617 5612 5608 5604 5600 5598 5597 5596 5595 5595 5595 5596 5597 5599 5601 5604 5607 5609 5613 5617 5620 5623 5626
5754 5748 5742 5734 5727 5721 5714 5707 5699 5693 5687 5681 5675 5668 5661 5654 5647 5640 5634 5627 5620 5616 5612 5607 5603 5600 5598 5597 5595 5595 5595 5594 5594 5594 5596 5599 5602 5605 5608 5612 5615 5618 5622
5754 5748 5741 5734 5727 5721 5715 5708 5702 5695 5689 5683 5677 5671 5664 5658 5651 5644 5638 5631 5625 5618 5614 5610 5606 5603 5601 5599 5597 5595 5595 5594 5593 5592 5592 5595 5599 5601 5604 5607 5610 5614 5617
5752 5746 5740 5734 5728 5722 5716 5709 5702 5696 5689 5683 5677 5672 5666 5660 5654 5648 5642 5635 5629 5624 5617 5613 5609 5606 5603 5602 5599 5597 5596 5595 5594 5593 5593 5595 5597 5599 5600 5602 5604 5607 5611
5751 5745 5739 5733 5727 5721 5716 5709 5703 5697 5690 5684 5677 5671 5666 5661 5656 5651 5645 5639 5634 5628 5622 5617 5613 5610 5606 5604 5603 5601 5599 5598 5598 5597 5596 5596 5597 5597 5598 5598 5598 5600 5604
5749 5744 5738 5732 5726 5720 5714 5708 5703 5697 5691 5685 5679 5673 5666 5661 5657 5652 5647 5642 5637 5632 5627 5622 5618 5614 5610 5608 5606 5604 5603 5602 5601 5600 5600 5600 5600 5599 5599 5599 5599 5600 5602
5748 5743 5737 5731 5725 5719 5713 5707 5701 5696 5691 5686 5680 5674 5668 5662 5657 5653 5648 5644 5640 5635 5631 5627 5623 5619 5615 5613 5610 5609 5607 5606 5605 5604 5604 5603 5603 5603 5603 5603 5603 5604 5606
5746 5741 5736 5730 5723 5717 5711 5705 5700 5695 5690 5685 5680 5675 5669 5664 5659 5654 5650 5645 5641 5637 5633 5630 5627 5623 5620 5617 5614 5612 5610 5609 5607 5606 5606 5606 5606 5606 5606 5606 5607 5608 5609
5744 5739 5733 5728 5722 5715 5709 5704 5698 5693 5688 5683 5678 5673 5669 5664 5660 5655 5650 5647 5643 5639 5636 5632 5629 5625 5623 5620 5617 5615 5613 5612 5611 5610 5610 5610 5610 5609 5609 5609 5609 5610 5610
5741 5736 5730 5725 5719 5713 5708 5702 5697 5692 5686 5680 5676 5672 5668 5664 5659 5656 5651 5647 5643 5640 5637 5634 5630 5627 5624 5622 5619 5617 5615 5613 5612 5612 5611 5611 5611 5610 5610 5610 5610 5610 5611
5737 5732 5726 5721 5716 5710 5705 5700 5694 5689 5683 5678 5674 5669 5665 5661 5657 5654 5651 5647 5643 5640 5637 5633 5631 5628 5625 5622 5620 5618 5616 5615 5613 5612 5612 5611 5611 5610 5610 5610 5610 5610 5609
5733 5727 5722 5717 5712 5707 5701 5696 5691 5686 5680 5674 5669 5665 5662 5658 5654 5650 5647 5645 5642 5638 5635 5632 5629 5627 5624 5622 5619 5617 5615 5614 5613 5612 5611 5611 5610 5610 5609 5609 5609 5609 5609
5728 5723 5718 5712 5707 5702 5697 5692 5687 5682 5676 5671 5666 5661 5657 5653 5649 5646 5643 5640 5638 5635 5632 5629 5626 5624 5621 5619 5617 5615 5613 5612 5610 5609 5609 5608 5608 5608 5608 5608 5608 5607 5608
5723 5718 5713 5708 5703 5698 5693 5688 5683 5678 5673 5667 5662 5658 5653 5648 5644 5641 5637 5635 5632 5630 5628 5626 5623 5621 5618 5616 5614 5612 5610 5609 5607 5606 5606 5605 5605 5605 5605 5605 5605 5605 5606
5718 5713 5709 5704 5699 5694 5688 5683 5678 5674 5669 5664 5659 5654 5649 5644 5639 5635 5631 5627 5625 5622 5621 5619 5617 5616 5614 5612 5610 5608 5606 5604 5603 5602 5601 5600 5600 5600 5600 5601 5601 5602 5603
5714 5708 5704 5699 5695 5690 5685 5680 5675 5670 5664 5659 5654 5649 5643 5638 5634 5629 5624 5620 5617 5615 5612 5611 5609 5608 5607 5606 5604 5602 5601 5599 5597 5596 5594 5593 5592 5592 5593 5595 5596 5598 5599
5709 5704 5699 5695 5690 5685 5680 5676 5670 5665 5660 5654 5648 5643 5638 5633 5627 5622 5618 5613 5610 5606 5604 5602 5600 5599 5598 5597 5596 5595 5594 5593 5591 5589 5587 5585 5582 5581 5582 5586 5589 5591 5594
5704 5700 5695 5691 5686 5681 5676 5671 5665 5660 5654 5648 5642 5637 5632 5626 5621 5616 5611 5606 5602 5599 5596 5593 5591 5589 5588 5587 5587 5587 5586 5585 5584 5583 5580 5578 5574 5570 5571 5576 5582 5585 5588
5699 5695 5690 5685 5681 5676 5671 5665 5660 5654 5648 5642 5636 5631 5625 5620 5614 5609 5604 5598 5594 5590 5587 5584 5581 5580 5578 5578 5578 5578 5578 5578 5577 5576 5574 5572 5569 5565 5565 5570 5575 5578 5581